Location: Bieujac
(44.5398°N, 0.1549°W)
Time: 17:58:30
(UTC+00:00)

Meteor 2-2 Rocket - Pass Details

Date: 17 November 2019
Orbit: 852 x 929 km, 81.3° (Epoch: 14 December)

Event Time Altitude Azimuth Distance (km) Brightness Sun altitude
Exits shadow 04:19:42 81° 12° (NNE) 869 4.1 -28.3°
Maximum altitude 04:20:00 87° 79° (ENE) 860 4.1 -28.2°
Drops below altitude 10° 04:25:38 10° 170° (S) 2,481 6.7 -27.2°
Sets 04:28:02 0° 171° (S) 3,419 7.5 -26.8°
